Temperature
19 18 19 19 19 19 19 19 19 19 19 19 19 19 19 19 19 19 19 19 19 19 19 19 19 19 19 19 19 19 19 19 19 19 19 19 19 19 19 19 18 18 19
19 19 20 19 19 19 19 19 19 19 19 19 19 19 19 19 19 19 19 19 19 19 19 19 19 19 19 19 19 19 19 19 19 19 19 19 19 19 19 19 18 18 18
19 19 20 19 19 19 19 19 19 19 19 19 19 19 19 19 19 19 19 19 19 19 19 19 19 19 19 19 19 19 19 19 19 19 19 18 18 19 19 19 19 19 19
19 19 19 19 19 19 19 19 19 19 19 19 19 19 19 19 19 19 19 19 19 19 19 19 19 19 19 19 19 19 19 19 19 19 18 18 18 19 19 19 18 18 18
19 19 19 20 19 19 19 19 19 19 19 19 19 19 19 19 19 19 19 19 19 19 19 19 19 19 19 19 19 19 19 19 19 18 18 18 18 19 18 18 18 18 18
19 19 19 20 20 20 20 19 19 19 19 19 19 19 19 19 19 19 19 19 19 19 18 18 18 18 18 18 18 18 18 18 18 18 18 18 18 18 18 18 18 18 18
19 19 19 20 20 20 20 20 19 19 19 19 19 19 19 19 19 19 19 19 19 19 19 18 18 18 18 18 18 18 18 18 18 18 18 18 18 18 18 18 18 18 18
19 19 19 20 20 20 20 20 19 19 19 19 19 19 19 19 19 18 18 19 19 19 19 18 18 18 18 18 18 18 18 18 18 18 18 18 18 18 18 18 18 18 18
19 19 18 19 19 20 19 19 19 19 19 19 19 19 19 19 18 18 18 18 18 18 18 18 18 18 18 18 18 18 18 18 17 18 18 17 18 18 18 18 18 18 18
19 19 19 18 18 18 18 19 19 19 19 19 19 19 19 19 18 18 18 18 18 18 18 18 18 18 18 18 18 18 18 18 17 17 18 17 18 18 18 18 18 18 18
19 19 19 19 18 18 18 18 19 19 19 19 18 19 19 18 18 18 17 18 18 18 18 18 18 18 18 18 18 18 18 18 17 18 17 17 18 18 18 18 18 18 17
19 19 19 18 18 18 18 18 18 18 18 18 18 18 18 18 18 17 17 18 18 18 18 18 18 18 18 17 18 18 18 17 18 18 17 18 18 18 18 17 18 18 17
18 18 18 18 18 18 18 18 18 18 18 18 18 18 18 18 17 17 17 17 17 18 17 18 18 17 17 17 18 18 18 18 18 18 17 17 17 17 17 17 17 17 17
17 18 18 18 18 18 18 18 18 18 18 18 18 18 18 18 18 18 17 17 17 17 17 17 17 17 17 18 18 18 18 18 18 18 17 18 17 17 17 17 17 17 17
17 17 18 18 18 18 18 18 18 18 18 18 18 18 18 18 18 18 17 17 17 17 17 17 17 18 18 18 18 19 19 18 18 18 17 17 17 17 17 17 17 17 17
16 17 17 18 18 18 18 18 18 18 18 18 18 18 18 18 18 18 17 17 17 17 17 17 17 17 18 18 18 18 18 18 18 17 17 17 17 17 17 17 17 17 17
16 16 17 17 18 18 18 18 18 18 18 18 18 18 18 18 18 18 17 17 17 17 17 17 18 17 17 18 18 18 18 18 18 18 17 17 17 17 17 17 17 17 17
15 16 16 17 17 18 18 18 18 18 18 18 18 18 18 18 18 18 17 17 17 17 17 17 17 17 17 18 18 18 18 18 18 18 17 17 17 16 17 17 17 17 17
15 15 16 16 17 17 18 18 18 18 18 18 18 18 18 18 18 18 18 17 17 17 17 17 17 17 18 18 18 18 18 18 18 18 18 18 17 17 17 17 17 17 17
14 14 15 15 16 16 17 17 18 18 18 18 18 18 18 18 18 18 18 18 17 17 17 17 17 17 17 17 18 18 18 18 18 18 18 18 18 17 17 16 17 17 17
14 14 14 14 15 15 16 17 17 17 18 18 18 18 18 18 18 18 18 18 17 17 17 17 17 17 17 17 17 18 18 18 18 18 18 18 18 18 17 17 17 16 17
13 13 13 13 14 14 15 15 16 16 17 17 17 17 17 17 17 17 17 18 17 17 17 17 17 17 17 17 17 17 17 18 17 18 17 17 18 18 17 17 17 17 16
12 12 13 13 13 13 14 14 15 15 16 16 16 16 17 17 17 17 17 17 17 17 17 17 17 17 17 17 17 17 17 18 18 18 18 17 17 18 17 17 17 17 17
12 12 12 12 12 13 13 14 14 14 15 15 15 16 16 17 17 17 17 17 17 17 17 17 17 17 16 16 16 16 17 17 17 17 17 17 18 17 17 17 17 17 17
12 12 12 12 12 13 13 13 13 14 14 14 15 15 16 16 16 16 16 16 16 16 16 16 16 16 16 16 16 16 16 16 16 16 17 17 17 17 17 17 17 17 17
12 12 12 12 12 13 13 13 13 13 14 14 14 15 15 15 16 16 16 16 16 16 16 16 16 16 16 16 16 16 16 15 16 16 16 16 16 17 16 16 16 16 16
Wind_Speed
12 14 16 13 13 12 11 11 11 12 12 12 12 11 11 11 10 8 8 7 6 5 5 5 4 5 5 5 5 5 5 6 6 6 7 7 7 7 7 6 4 9 9
15 16 17 15 14 13 12 11 11 11 11 11 11 10 10 10 9 8 7 6 6 5 5 5 5 5 5 5 5 4 5 6 6 6 6 7 7 7 7 5 6 9 7
16 16 17 15 14 13 12 12 11 10 10 10 10 9 9 9 8 7 6 5 5 5 4 4 5 5 5 5 5 5 5 5 6 6 2 5 8 7 6 6 7 7 6
15 15 16 16 14 13 12 12 11 11 10 10 9 9 9 8 7 7 6 5 4 4 4 4 4 4 4 5 5 5 5 5 5 3 2 5 6 8 6 6 6 6 6
14 13 15 15 14 13 12 11 11 10 10 10 9 9 9 8 8 7 6 5 4 4 3 3 3 4 4 4 4 4 4 5 4 1 5 5 6 7 5 6 6 6 5
13 12 14 14 13 13 12 11 10 10 10 9 9 9 9 9 8 7 6 6 5 4 3 3 3 4 4 4 4 4 5 5 4 3 4 3 6 6 5 5 5 6 5
12 12 13 13 12 12 11 11 11 11 10 10 9 9 9 9 8 7 7 6 5 4 3 3 3 3 4 4 3 4 5 4 2 3 3 3 6 5 4 4 4 5 5
10 10 12 12 11 11 11 11 11 11 11 11 10 10 9 9 8 8 7 6 5 4 4 4 3 4 4 4 3 4 5 4 4 4 3 4 5 3 3 3 3 4 4
8 8 8 11 12 12 10 10 11 11 11 11 11 11 10 9 9 9 8 7 6 5 5 4 4 5 5 4 4 4 4 1 2 3 4 4 5 2 2 2 2 2 4
6 7 8 8 9 10 12 13 12 12 12 12 12 12 11 10 10 10 10 8 7 6 5 5 5 6 6 5 4 4 4 6 3 4 3 6 4 2 2 2 1 2 3
4 5 6 7 7 8 8 9 12 13 13 13 13 13 12 12 12 11 9 9 7 6 6 6 6 6 7 7 5 4 6 5 4 2 2 7 2 2 2 2 2 2 2
2 4 6 7 8 9 8 8 9 11 12 13 12 13 13 10 8 7 11 9 7 7 7 6 6 8 9 8 9 8 6 4 4 3 4 5 1 1 2 2 2 2 2
6 5 6 7 9 9 8 9 8 8 9 11 12 12 11 10 8 8 8 10 10 10 10 9 10 9 8 5 6 7 4 3 3 2 5 5 1 1 2 3 3 2 2
10 10 9 9 8 9 10 9 9 8 8 9 11 13 10 7 8 8 7 8 8 8 7 8 7 7 7 8 8 7 7 5 3 1 6 5 1 1 2 3 3 3 2
11 11 11 10 9 9 8 8 9 9 9 10 9 10 11 8 8 8 8 7 8 8 8 8 8 8 8 8 7 7 6 5 4 2 4 5 2 0 2 3 4 4 3
11 11 10 10 9 9 8 8 8 9 10 10 10 12 12 10 9 7 8 8 8 8 8 8 9 7 8 7 7 7 6 6 5 4 3 6 6 3 1 2 4 4 4
11 11 10 9 9 9 9 8 8 9 10 9 10 12 12 12 11 10 9 8 9 10 10 9 9 8 7 7 8 8 7 6 6 5 4 2 4 7 4 2 3 4 4
11 11 10 9 9 9 8 8 7 8 9 9 10 10 12 13 14 11 9 9 10 9 8 7 8 8 9 8 8 8 7 6 8 6 6 6 4 3 7 5 3 2 3
11 10 10 10 9 9 8 7 7 8 8 9 10 10 12 13 14 11 9 9 10 8 8 8 9 9 9 8 8 7 7 7 7 7 7 6 5 4 4 8 6 4 3
11 10 10 9 9 9 7 7 6 6 6 7 9 11 12 12 13 11 8 9 9 8 8 8 9 9 8 7 8 8 8 7 7 7 7 6 6 6 5 5 7 8 6
11 11 11 11 10 9 7 7 6 6 6 6 7 10 12 13 12 10 8 9 8 8 9 9 8 9 8 8 8 8 8 10 9 7 8 7 8 7 7 7 5 5 7
12 12 11 11 11 10 7 7 6 7 7 7 6 8 11 12 12 10 10 9 9 8 9 8 7 6 7 7 7 6 7 9 8 10 9 8 9 8 9 8 8 7 5
13 12 11 11 11 10 9 7 7 6 6 5 6 7 8 11 12 11 11 10 10 9 8 9 9 8 7 6 7 6 6 7 5 8 10 10 10 8 8 8 9 9 8
13 12 11 10 10 10 9 8 8 7 6 6 6 5 7 8 10 12 11 11 10 9 10 10 10 8 7 6 5 5 5 3 3 4 6 8 9 9 10 7 8 9 8
13 12 11 11 10 10 9 8 8 7 6 6 5 5 4 5 6 8 10 10 10 10 11 11 11 11 9 8 6 5 5 4 6 5 4 5 6 8 8 8 8 8 8
13 12 12 12 11 11 10 9 8 8 7 6 5 3 2 1 2 4 6 8 9 9 11 11 11 12 10 10 8 7 6 5 5 5 6 5 4 4 5 5 6 6 7
Wind_Direction
153 150 143 150 146 143 138 134 134 138 143 147 152 157 162 166 168 166 163 162 162 162 161 157 145 135 137 134 130 122 110 100 93 93 95 92 91 92 93 103 129 107 103
149 147 145 149 146 144 141 138 137 137 139 141 144 149 155 159 161 159 158 158 160 161 162 158 152 151 149 145 139 132 116 102 96 93 99 105 94 90 92 80 41 89 108
146 146 150 151 148 146 145 144 141 140 139 141 143 145 149 152 153 153 152 155 158 161 165 162 159 158 154 150 147 137 120 109 104 101 137 107 103 93 91 90 87 98 107
147 150 152 150 151 151 150 148 148 147 146 146 147 148 150 151 152 153 153 153 156 160 164 164 163 160 155 148 145 138 130 118 114 169 118 83 93 91 88 91 94 97 102
149 151 146 153 153 155 155 154 154 152 152 154 155 154 155 155 155 157 155 153 154 158 161 165 167 161 155 149 149 148 141 125 137 216 75 73 78 86 83 85 88 91 98
152 153 149 158 158 161 162 161 161 159 160 162 162 160 160 160 159 158 157 154 154 158 157 158 165 162 160 155 156 155 148 141 188 103 90 84 84 88 81 80 83 87 90
156 157 154 161 164 167 168 169 169 168 170 172 171 168 168 166 165 164 162 157 157 160 156 150 153 157 158 152 143 142 139 161 165 116 104 81 77 85 82 77 82 86 87
161 163 160 164 174 178 180 180 180 180 181 180 178 175 174 174 171 167 163 161 163 160 153 144 141 145 145 147 141 141 149 206 158 132 116 93 82 93 89 80 77 81 92
170 174 177 177 183 189 195 196 194 193 191 187 185 183 183 183 179 173 169 167 166 162 156 148 140 137 135 136 136 133 143 222 188 140 130 102 96 92 94 84 82 87 97
190 195 199 202 204 200 198 200 206 206 201 196 193 190 189 189 189 183 183 171 173 169 162 154 145 136 132 131 131 134 159 209 190 166 141 102 100 102 102 93 79 92 107
224 230 230 229 229 236 233 206 208 215 212 207 202 197 200 205 198 192 185 161 179 178 171 162 155 147 149 144 138 154 205 211 170 195 108 85 94 111 121 116 99 93 105
292 260 253 251 247 244 244 238 228 224 215 216 214 203 209 214 208 208 144 173 188 187 181 175 166 175 205 181 165 193 199 191 199 182 108 94 102 154 147 139 128 112 113
2 345 316 287 265 257 248 248 242 237 229 228 227 218 215 213 208 209 191 185 195 197 198 173 197 204 207 197 193 195 184 210 206 179 117 111 147 204 173 157 147 140 137
10 5 353 335 306 278 261 255 252 248 241 234 230 230 221 218 221 212 211 207 198 201 206 208 216 204 211 202 204 200 185 208 196 152 110 115 127 219 195 178 170 167 168
8 360 354 347 338 320 297 273 263 256 252 248 241 241 229 226 227 219 217 210 215 210 200 215 220 209 214 213 213 214 203 197 195 173 124 129 131 170 214 196 185 182 184
3 355 348 346 346 334 314 291 274 269 260 257 250 245 241 232 236 230 228 215 218 216 214 215 217 209 214 212 213 215 224 211 215 184 168 150 159 166 206 219 209 194 189
358 351 348 341 344 336 324 307 290 278 271 262 254 252 247 240 238 235 234 224 218 215 216 217 214 213 214 209 214 220 220 225 230 210 186 196 168 168 183 214 224 203 198
353 349 346 343 340 333 321 303 292 280 272 265 259 258 255 246 239 235 234 233 226 219 217 211 217 209 211 216 218 212 216 207 227 223 209 202 195 176 173 180 207 199 198
347 345 343 342 337 329 320 301 287 278 266 260 254 252 254 250 244 234 231 233 228 219 218 214 213 214 217 219 226 223 225 213 217 218 223 214 190 198 179 156 184 187 178
343 342 341 339 336 330 322 312 294 281 273 263 253 245 244 247 247 241 233 230 226 218 217 217 212 214 225 224 231 226 223 222 220 220 230 223 219 205 196 174 184 175 174
341 340 339 338 338 334 328 323 312 300 289 271 260 252 241 239 239 236 234 234 223 217 216 214 209 211 218 225 232 229 224 227 230 213 226 228 222 212 207 197 198 179 169
341 339 335 337 336 334 327 315 299 295 283 275 265 255 244 236 231 229 226 227 221 213 210 207 201 207 212 218 225 233 233 223 224 230 225 230 235 209 220 213 198 191 189
343 340 335 335 333 334 330 321 314 304 289 277 267 256 244 233 226 225 226 223 218 210 209 202 197 204 207 213 226 224 229 229 220 217 221 223 231 228 221 222 217 204 193
342 337 335 335 336 337 333 331 326 314 305 298 288 269 252 236 226 220 223 222 214 211 209 206 199 199 195 201 215 234 246 272 223 216 212 223 224 225 228 220 224 220 206
345 341 341 340 341 340 337 337 330 323 311 304 300 284 265 241 228 221 220 220 216 214 214 211 202 200 199 197 194 200 224 244 247 244 231 213 212 219 224 226 221 222 214
353 354 354 353 352 349 347 349 347 339 333 331 332 320 296 254 228 221 218 218 219 218 216 211 207 205 205 204 198 193 195 205 215 224 235 239 233 217 214 221 229 222 222
Height
1545 1546 1547 1549 1551 1553 1554 1556 1557 1558 1559 1560 1561 1562 1563 1563 1564 1565 1565 1565 1566 1566 1566 1566 1567 1567 1567 1567 1567 1567 1566 1566 1566 1565 1565 1564 1564 1563 1563 1563 1563 1563 1562
1545 1547 1548 1550 1552 1554 1555 1556 1558 1559 1560 1561 1562 1563 1563 1564 1565 1565 1566 1566 1566 1567 1567 1567 1567 1568 1568 1568 1568 1568 1568 1567 1567 1567 1566 1566 1566 1565 1565 1564 1564 1564 1564
1546 1548 1550 1552 1553 1555 1556 1558 1559 1560 1561 1562 1563 1563 1564 1565 1565 1566 1566 1567 1567 1567 1567 1568 1568 1568 1569 1569 1569 1569 1569 1569 1569 1568 1568 1569 1568 1567 1566 1566 1565 1565 1565
1548 1550 1552 1553 1555 1556 1558 1559 1560 1561 1562 1562 1563 1564 1564 1565 1566 1566 1567 1567 1567 1567 1568 1568 1568 1569 1569 1570 1570 1570 1570 1570 1570 1570 1571 1570 1570 1568 1568 1567 1567 1567 1567
1550 1552 1553 1554 1556 1557 1559 1560 1561 1562 1562 1563 1564 1564 1565 1565 1566 1566 1567 1567 1567 1567 1568 1568 1569 1569 1570 1570 1571 1571 1571 1571 1571 1571 1571 1571 1570 1569 1569 1569 1569 1568 1568
1552 1554 1554 1556 1557 1558 1559 1560 1561 1562 1563 1563 1564 1564 1565 1565 1566 1566 1567 1567 1567 1567 1568 1568 1569 1569 1570 1570 1571 1571 1572 1572 1572 1573 1572 1572 1572 1570 1570 1570 1570 1570 1569
1554 1555 1556 1557 1558 1559 1560 1561 1562 1562 1563 1563 1564 1564 1565 1565 1566 1566 1566 1567 1567 1567 1567 1568 1568 1569 1569 1571 1571 1572 1572 1572 1573 1573 1573 1573 1572 1572 1571 1571 1571 1571 1571
1556 1557 1557 1557 1558 1559 1560 1561 1562 1562 1562 1563 1563 1564 1564 1565 1566 1566 1566 1566 1566 1566 1567 1567 1568 1568 1569 1570 1571 1572 1572 1573 1574 1574 1574 1574 1573 1572 1572 1572 1572 1572 1572
1557 1558 1559 1559 1558 1559 1560 1560 1561 1561 1562 1562 1563 1563 1564 1564 1565 1565 1565 1565 1566 1566 1566 1567 1567 1568 1569 1570 1571 1572 1572 1573 1575 1575 1575 1574 1573 1573 1573 1573 1573 1572 1573
1558 1559 1559 1560 1560 1560 1559 1559 1560 1560 1561 1561 1562 1562 1563 1563 1564 1564 1564 1564 1565 1565 1566 1566 1567 1568 1568 1569 1571 1572 1572 1573 1575 1575 1576 1574 1573 1573 1573 1573 1573 1573 1573
1557 1558 1559 1560 1559 1559 1560 1559 1558 1559 1559 1560 1560 1561 1561 1563 1563 1563 1563 1563 1564 1564 1565 1566 1566 1567 1568 1569 1570 1571 1573 1575 1575 1576 1575 1573 1573 1572 1572 1572 1573 1573 1573
1558 1558 1558 1558 1558 1558 1557 1557 1557 1557 1557 1557 1559 1559 1560 1562 1563 1563 1562 1562 1563 1563 1564 1565 1566 1567 1569 1571 1571 1572 1574 1574 1575 1575 1574 1573 1572 1572 1571 1572 1572 1573 1573
1556 1556 1556 1556 1556 1556 1556 1555 1555 1555 1555 1555 1556 1557 1558 1559 1560 1561 1561 1561 1562 1562 1565 1564 1565 1568 1570 1571 1572 1573 1573 1575 1575 1575 1574 1572 1571 1571 1570 1571 1571 1572 1573
1554 1553 1553 1553 1553 1553 1554 1553 1552 1552 1552 1553 1553 1554 1555 1556 1558 1560 1560 1561 1562 1562 1563 1565 1566 1568 1569 1570 1571 1573 1573 1574 1574 1574 1572 1571 1570 1570 1570 1570 1570 1571 1572
1552 1552 1551 1550 1550 1550 1550 1550 1550 1550 1550 1550 1550 1551 1552 1553 1554 1557 1558 1558 1560 1561 1561 1562 1564 1566 1567 1569 1570 1571 1572 1573 1574 1573 1572 1570 1569 1569 1569 1569 1570 1570 1571
1552 1550 1548 1548 1547 1546 1546 1546 1546 1547 1547 1547 1547 1548 1549 1550 1551 1553 1555 1556 1557 1558 1560 1561 1562 1564 1565 1567 1568 1570 1571 1572 1572 1572 1572 1570 1569 1568 1568 1568 1569 1569 1570
1551 1549 1547 1546 1544 1544 1543 1543 1542 1542 1542 1543 1544 1544 1545 1546 1548 1549 1551 1553 1554 1555 1557 1558 1561 1562 1563 1565 1566 1568 1569 1570 1571 1571 1571 1571 1570 1568 1568 1568 1568 1569 1569
1551 1548 1546 1544 1542 1540 1539 1539 1538 1537 1538 1538 1539 1540 1541 1543 1544 1545 1547 1549 1551 1552 1554 1555 1557 1559 1561 1563 1565 1566 1567 1568 1569 1570 1570 1570 1570 1569 1568 1567 1567 1568 1569
1549 1547 1544 1541 1539 1537 1536 1535 1534 1533 1533 1533 1534 1535 1536 1538 1540 1541 1542 1544 1547 1548 1550 1552 1554 1557 1559 1561 1562 1564 1565 1566 1567 1567 1569 1569 1569 1568 1569 1567 1567 1567 1568
1548 1545 1542 1539 1537 1534 1532 1531 1530 1529 1528 1528 1528 1529 1531 1533 1535 1537 1538 1540 1542 1544 1546 1548 1551 1553 1556 1558 1560 1561 1562 1564 1564 1565 1566 1567 1568 1568 1569 1568 1567 1567 1567
1546 1543 1540 1537 1534 1531 1529 1527 1525 1524 1523 1523 1523 1524 1525 1528 1530 1532 1533 1535 1537 1539 1542 1544 1547 1549 1552 1555 1557 1558 1559 1560 1562 1563 1564 1565 1566 1567 1567 1567 1568 1568 1567
1544 1541 1538 1535 1532 1528 1526 1523 1521 1519 1518 1518 1518 1519 1520 1522 1524 1526 1528 1530 1532 1534 1536 1539 1542 1544 1547 1550 1553 1555 1556 1557 1557 1559 1560 1561 1563 1564 1565 1566 1567 1567 1568
1542 1538 1535 1532 1529 1526 1523 1520 1518 1516 1514 1514 1514 1514 1514 1516 1518 1520 1522 1524 1526 1529 1531 1533 1536 1538 1542 1545 1548 1550 1552 1552 1553 1555 1556 1558 1559 1561 1562 1564 1565 1566 1566
1541 1537 1534 1531 1527 1524 1521 1518 1515 1513 1512 1510 1510 1509 1509 1510 1512 1514 1516 1519 1521 1523 1526 1528 1531 1533 1536 1539 1541 1544 1547 1548 1550 1551 1553 1554 1555 1557 1559 1560 1562 1563 1564
1539 1535 1532 1529 1526 1522 1519 1516 1513 1511 1509 1507 1506 1505 1505 1506 1507 1509 1512 1514 1516 1518 1521 1523 1525 1528 1530 1533 1535 1538 1541 1543 1546 1548 1549 1550 1551 1553 1555 1556 1558 1560 1561
1539 1535 1531 1528 1524 1521 1518 1515 1512 1510 1507 1505 1504 1503 1502 1503 1504 1505 1507 1509 1511 1514 1516 1519 1521 1523 1525 1528 1530 1532 1535 1538 1540 1543 1545 1546 1548 1549 1550 1552 1554 1555 1557